Tracking 19638 objects as of 20-Apr-2019
HD Live streaming from Space Station
objects crossing your sky now

CZ-4 DEB

Track CZ-4 DEB now!
10-day predictions


NORAD ID: 26273
Int'l Code: 1999-057FK
Perigee: 609.2 km
Apogee: 702.3 km
Inclination: 98.7 °
Period: 97.7 minutes
Semi major axis: 7026 km
RCS: 0.133 m2 (medium)
Launch date: October 14, 1999
Source: People's Republic of China (PRC)
Launch site: Taiyaun Space Center, China (TSC)

Note: This is SATELLITE DEBRIS
aabbcc
Your satellite tracking list
Your tracking list is empty




NASA's NSSDC Master Catalog

Two Line Element Set (TLE):
1 26273U 99057FK  19108.72685837 +.00000074 +00000-0 +20206-4 0  9990
2 26273 098.6600 023.4678 0066219 265.5258 146.6893 14.73911495023363
Source of the keplerian elements: AFSPC